Home   Weather   Norfolk   Past weeks

Flag for USA Past Weather in Norfolk, Virginia, USA — Yesterday and Last 2 Weeks

Now
73 °F

Mostly cloudy.


Feels Like: 74 °F
Forecast: 68 / 76 °F
Wind: 3 mph from South

Location: Norfolk Naval Air Station

Current Time: Sep 26, 2016 at 10:00:01 PM

Latest Report: Sep 26, 2016 at 8:59 PM


Visibility: 10 mi

Pressure: 30.07 "Hg

Humidity: 76%

Dew Point: 65 °F

Location of NorfolkLocation

Past Weather in Norfolk — Graph

°F

Norfolk Temperature Yesterday

Maximum temperature yesterday: 75 °F (at 2:59 PM)
Minimum temperature yesterday: 63 °F (at 9:59 PM)
Average temperature yesterday: 70 °F

High & Low Weather Summary for the Past Weeks

 TemperatureHumidityPressure
High89 °F (Sep 14, 2:59 PM)97% (Sep 18, 3:59 AM)30.26 "Hg (Sep 18, 3:59 AM)
Low60 °F (Sep 26, 2:59 AM)47% (Sep 13, 5:59 PM)29.94 "Hg (Sep 19, 1:59 PM)
Average75 °F78%30.10 "Hg
* Reported Sep 11 8:59 PM — Sep 26 8:59 PM, Norfolk, Weather by CustomWeather, © 2016

Note: Actual official high and low records may vary slightly from our data, if they occured in-between our weather recording intervals... More about our weather records

Advertising

Norfolk Weather History for the Previous 24 Hours

Scroll right to see more
 ConditionsComfort  
Time TempWeatherWind HumidityBarometerVisibility
8:59 PM
Mon, Sep 26
73 °FMostly cloudy.3 mph76%30.07 "Hg10 mi
7:59 PM73 °FMostly cloudy.5 mph74%30.07 "Hg10 mi
6:59 PM73 °FOvercast.6 mph71%30.05 "Hg10 mi
5:59 PM73 °FOvercast.6 mph71%30.05 "Hg10 mi
4:59 PM74 °FPartly sunny.6 mph62%30.06 "Hg10 mi
3:59 PM74 °FOvercast.7 mph60%30.07 "Hg10 mi
2:59 PM74 °FMostly cloudy.6 mph53%30.10 "Hg10 mi
1:59 PM75 °FOvercast.7 mph48%30.11 "Hg10 mi
12:59 PM76 °FPartly sunny.7 mph47%30.14 "Hg10 mi
11:59 AM74 °FPartly sunny.5 mph50%30.15 "Hg10 mi
10:59 AM73 °FPartly sunny.5 mph51%30.16 "Hg10 mi
9:59 AM72 °FPartly sunny.7 mph55%30.16 "Hg10 mi
8:59 AM70 °FPartly sunny.6 mph68%30.15 "Hg10 mi
7:59 AM65 °FScattered clouds.No wind85%30.16 "Hg10 mi
6:59 AM62 °FScattered clouds.3 mph83%30.14 "Hg10 mi
5:59 AM60 °FPassing clouds.6 mph90%30.14 "Hg10 mi
4:59 AM60 °FPassing clouds.3 mph90%30.15 "Hg10 mi
3:59 AM61 °FPassing clouds.3 mph87%30.16 "Hg10 mi
2:59 AM60 °FPassing clouds.3 mph90%30.16 "Hg10 mi
1:59 AM62 °FPassing clouds.3 mph86%30.18 "Hg10 mi
12:59 AM63 °FPassing clouds.3 mph81%30.17 "Hg10 mi
11:59 PM
Sun, Sep 25
66 °FPassing clouds.No wind73%30.17 "Hg10 mi
10:59 PM64 °FPassing clouds.3 mph84%30.18 "Hg10 mi
Weather by CustomWeather, © 2016

See weather overviewHow to use our weather pages